Location: Mascot Post Office (historical)
(40.2645°N, 99.5462°W)
Time: 02:38:13
(UTC+00:00)

SeaSat 1 - Pass Details

Date: 14 July 2020
Orbit: 744 x 748 km, 108.0° (Epoch: 14 August)

Event Time Altitude Azimuth Distance (km) Brightness Sun altitude
Rises 07:18:11 0° 43° (NE) 3,196 6.5 -27.6°
Reaches altitude 10° 07:21:10 10° 62° (ENE) 2,268 5.4 -27.5°
Enters shadow 07:24:08 18° 99° (E) 1,779 4.4 -27.4°
